Findlay, OH

3:33 PM EST on January 22, 2017 (GMT -0500)
Findlay

Weather History for KFDY - March, 2013

Change the Weather History Date:

Sunday, March 31, 2013

  Actual Average Record
Temperature  
Mean Temperature 47 °F -  
Max Temperature 59 °F 53 °F 80 °F (1986)
Min Temperature 37 °F 34 °F 15 °F (1969)
Degree Days  
Heating Degree Days 18    
Moisture  
Dew Point 37 °F    
Average Humidity 67    
Maximum Humidity 90    
Minimum Humidity 42    
Precipitation  
Precipitation 0.00 in - - ()
Sea Level Pressure  
Sea Level Pressure 29.75 in    
Wind  
Wind Speed 10 mph (SW)    
Max Wind Speed 18 mph    
Max Gust Speed 29 mph    
Visibility 9 miles    
Events Rain    
Averages and records for this station are not official NWS values.
T = Trace of Precipitation, MM = Missing Value Source: NWS Daily Summary

Daily Weather History Graph

Daily Weather History Graph

Search for Another Location

Airport or City:

Trip Planner

Search our weather history database for the weather conditions in past years. The results will help you decide how hot, cold, wet, or windy it might be!

Date:

Astronomy

Mar. 31, 2013 Rise Set
Actual Time 7:19 AM EDT 7:58 PM EDT
Civil Twilight 6:51 AM EDT 8:26 PM EDT
Nautical Twilight 6:18 AM EDT 8:59 PM EDT
Astronomical Twilight 5:45 AM EDT 9:33 PM EDT
Moon 12:05 AM EDT (3/31) 10:04 AM EDT (3/31)
Length of Visible Light 13h 35m
Length of Day
12h 39m
Waning Gibbous, 78% of the Moon is Illuminated
Mar 31
Waning Gibbous
Apr 3
Last Quarter
Apr 10
New
Apr 18
First Quarter
Apr 25
Full

Hourly Weather History & Observations

Time (EDT) Temp. Windchill Dew Point Humidity Pressure Visibility Wind Dir Wind Speed Gust Speed Precip Events Conditions
12:53 AM 44.1 °F 40.1 °F 30.9 °F 60% 29.91 in 10.0 mi SSE 6.9 mph - N/A   Clear
1:53 AM 44.1 °F 39.0 °F 30.0 °F 58% 29.89 in 10.0 mi SSE 9.2 mph - N/A   Clear
2:53 AM 41.0 °F 35.8 °F 28.9 °F 62% 29.86 in 10.0 mi SSE 8.1 mph - N/A   Clear
3:53 AM 37.9 °F 31.5 °F 28.9 °F 70% 29.83 in 10.0 mi SSE 9.2 mph - N/A   Clear
4:53 AM 39.0 °F 32.8 °F 28.9 °F 67% 29.81 in 10.0 mi SSE 9.2 mph - N/A   Clear
5:53 AM 39.0 °F 35.7 °F 28.0 °F 65% 29.79 in 10.0 mi SSE 4.6 mph - N/A   Clear
6:53 AM 39.9 °F 35.8 °F 28.9 °F 65% 29.77 in 10.0 mi South 5.8 mph - N/A   Clear
7:53 AM 39.9 °F 35.1 °F 34.0 °F 79% 29.78 in 10.0 mi SSW 6.9 mph - N/A   Overcast
8:53 AM 44.1 °F 38.6 °F 36.0 °F 73% 29.77 in 10.0 mi SSW 10.4 mph - N/A   Overcast
9:53 AM 46.9 °F - 37.0 °F 68% 29.75 in 10.0 mi SSW 8.1 mph - N/A   Overcast
10:53 AM 48.9 °F - 37.9 °F 66% 29.75 in 10.0 mi WSW 11.5 mph - N/A   Overcast
11:53 AM 48.0 °F - 41.0 °F 77% 29.75 in 9.0 mi WSW 10.4 mph - 0.00 in Rain Light Rain
12:03 PM 46.4 °F 40.7 °F 41.0 °F 81% 29.75 in 9.0 mi WSW 12.7 mph - 0.00 in Rain Light Rain
12:53 PM 48.0 °F - 42.1 °F 80% 29.75 in 10.0 mi WSW 15.0 mph - 0.00 in   Overcast
1:28 PM 48.2 °F - 42.8 °F 82% 29.74 in 7.0 mi WSW 12.7 mph - N/A   Overcast
1:53 PM 46.9 °F - 44.1 °F 90% 29.74 in 4.0 mi WSW 15.0 mph 20.7 mph N/A   Overcast
2:13 PM 46.4 °F 41.9 °F 42.8 °F 87% 29.73 in 5.0 mi WSW 9.2 mph - N/A   Overcast
2:53 PM 50.0 °F - 44.1 °F 80% 29.72 in 9.0 mi WSW 13.8 mph - N/A   Overcast
3:05 PM 53.6 °F - 44.6 °F 72% 29.71 in 10.0 mi WSW 18.4 mph 21.9 mph N/A   Mostly Cloudy
3:37 PM 55.4 °F - 41.0 °F 58% 29.70 in 10.0 mi WSW 15.0 mph 23.0 mph N/A   Scattered Clouds
3:53 PM 55.0 °F - 39.9 °F 57% 29.69 in 10.0 mi WSW 16.1 mph - N/A   Mostly Cloudy
4:53 PM 57.0 °F - 36.0 °F 45% 29.68 in 10.0 mi WSW 18.4 mph 25.3 mph N/A   Scattered Clouds
5:53 PM 57.9 °F - 35.1 °F 42% 29.67 in 10.0 mi WSW 17.3 mph 24.2 mph N/A   Scattered Clouds
6:53 PM 57.0 °F - 36.0 °F 45% 29.68 in 10.0 mi SW 17.3 mph 23.0 mph N/A   Scattered Clouds
7:53 PM 53.1 °F - 37.0 °F 55% 29.68 in 10.0 mi WSW 10.4 mph 20.7 mph 0.00 in Rain Light Rain
8:53 PM 52.0 °F - 36.0 °F 54% 29.69 in 10.0 mi West 16.1 mph - 0.00 in   Overcast
9:53 PM 50.0 °F - 37.9 °F 63% 29.69 in 10.0 mi SW 12.7 mph - 0.00 in   Partly Cloudy
10:53 PM 50.0 °F - 39.0 °F 66% 29.70 in 10.0 mi WSW 15.0 mph 23.0 mph N/A   Partly Cloudy
11:53 PM 46.9 °F - 37.9 °F 71% 29.72 in 10.0 mi West 15.0 mph 28.8 mph N/A   Mostly Cloudy